Weather History for KW29 - January, 2014

Change the Weather History Date:

Thursday, January 9, 2014

  Actual Average (KESN) Record (KESN)
Temperature  
Mean Temperature 32 °F -  
Max Temperature 35 °F 37 °F 60 °F (1964)
Min Temperature 28 °F 20 °F 7 °F (1970)
Degree Days  
Heating Degree Days 34    
Moisture  
Dew Point 20 °F    
Average Humidity 63    
Maximum Humidity 80    
Minimum Humidity 44    
Precipitation  
Precipitation 0.00 in - - ()
Sea Level Pressure  
Sea Level Pressure 30.59 in    
Wind  
Wind Speed 3 mph (ENE)    
Max Wind Speed 8 mph    
Max Gust Speed -    
Visibility 10 miles    
Events      
Averages and records for this station are not official NWS values.
T = Trace of Precipitation, MM = Missing Value Source: NWS Daily Summary

Daily Weather History Graph

Daily Weather History Graph

Search for Another Location

Airport or City:

Trip Planner

Search our weather history database for the weather conditions in past years. The results will help you decide how hot, cold, wet, or windy it might be!

Date:

Astronomy

Jan. 09, 2014 Rise Set
Actual Time 7:24 AM EST 5:01 PM EST
Civil Twilight 6:54 AM EST 5:30 PM EST
Nautical Twilight 6:21 AM EST 6:03 PM EST
Astronomical Twilight 5:49 AM EST 6:35 PM EST
Moon 12:25 PM EST (1/9) 1:30 AM EST (1/9)
Length of Visible Light 10h 36m
Length of Day
9h 36m
Waxing Gibbous, 66% of the Moon is Illuminated
Jan 9
Waxing Gibbous
Jan 15
Full
Jan 24
Last Quarter
Jan 30
New
Feb 6
First Quarter

Hourly Weather History & Observations

Time (EST) Temp. Windchill Dew Point Humidity Pressure Visibility Wind Dir Wind Speed Gust Speed Precip Events Conditions
12:10 AM 28.4 °F 23.3 °F 17.6 °F 64% 30.51 in 10.0 mi SE 4.6 mph - N/A   Clear
12:30 AM 28.4 °F 24.6 °F 19.4 °F 69% 30.50 in 10.0 mi ESE 3.5 mph - N/A   Clear
12:50 AM 28.4 °F 24.6 °F 17.6 °F 64% 30.51 in 10.0 mi ESE 3.5 mph - N/A   Clear
1:10 AM 28.4 °F 24.6 °F 17.6 °F 64% 30.51 in 10.0 mi ESE 3.5 mph - N/A   Clear
1:30 AM 28.4 °F - 17.6 °F 64% 30.51 in 10.0 mi Calm Calm - N/A   Clear
1:50 AM 28.4 °F - 17.6 °F 64% 30.52 in 10.0 mi Calm Calm - N/A   Clear
2:10 AM 28.4 °F - 17.6 °F 64% 30.52 in 10.0 mi Calm Calm - N/A   Clear
2:30 AM 28.4 °F - 17.6 °F 64% 30.53 in 10.0 mi Calm Calm - N/A   Clear
2:50 AM 28.4 °F 24.6 °F 19.4 °F 69% 30.53 in 10.0 mi North 3.5 mph - N/A   Clear
3:10 AM 28.4 °F - 19.4 °F 69% 30.53 in 10.0 mi Calm Calm - N/A   Scattered Clouds
3:30 AM 28.4 °F - 19.4 °F 69% 30.54 in 10.0 mi Calm Calm - N/A   Scattered Clouds
3:50 AM 28.4 °F - 19.4 °F 69% 30.54 in 10.0 mi Calm Calm - N/A   Clear
4:11 AM 28.4 °F - 19.4 °F 69% 30.54 in 10.0 mi Calm Calm - N/A   Clear
4:31 AM 28.4 °F - 19.4 °F 69% 30.54 in 10.0 mi Calm Calm - N/A   Clear
4:51 AM 28.4 °F 24.6 °F 19.4 °F 69% 30.55 in 10.0 mi North 3.5 mph - N/A   Clear
5:11 AM 28.4 °F 24.6 °F 19.4 °F 69% 30.56 in 10.0 mi NNE 3.5 mph - N/A   Clear
5:31 AM 28.4 °F 24.6 °F 21.2 °F 74% 30.56 in 10.0 mi NNE 3.5 mph - N/A   Clear
5:51 AM 28.4 °F 24.6 °F 21.2 °F 74% 30.56 in 10.0 mi NNE 3.5 mph - N/A   Clear
6:11 AM 28.4 °F - 19.4 °F 69% 30.57 in 10.0 mi Calm Calm - N/A   Clear
6:31 AM 28.4 °F 24.6 °F 19.4 °F 69% 30.56 in 10.0 mi NE 3.5 mph - N/A   Clear
6:51 AM 28.4 °F - 19.4 °F 69% 30.57 in 10.0 mi Calm Calm - N/A   Clear
7:11 AM 28.4 °F - 19.4 °F 69% 30.59 in 10.0 mi Calm Calm - N/A   Clear
7:31 AM 28.4 °F 24.6 °F 19.4 °F 69% 30.59 in 10.0 mi NE 3.5 mph - N/A   Clear
7:51 AM 28.4 °F 24.6 °F 19.4 °F 69% 30.60 in 10.0 mi NE 3.5 mph - N/A   Clear
8:11 AM 28.4 °F - 19.4 °F 69% 30.61 in 10.0 mi Calm Calm - N/A   Clear
8:31 AM 30.2 °F 25.4 °F 19.4 °F 64% 30.63 in 10.0 mi NE 4.6 mph - N/A   Clear
8:51 AM 30.2 °F 26.7 °F 17.6 °F 60% 30.64 in 10.0 mi ENE 3.5 mph - N/A   Clear
9:11 AM 32.0 °F 27.5 °F 17.6 °F 55% 30.65 in 10.0 mi NNE 4.6 mph - N/A   Clear
9:31 AM 32.0 °F 24.8 °F 17.6 °F 55% 30.66 in 10.0 mi ENE 8.1 mph - N/A   Clear
9:51 AM 32.0 °F 24.8 °F 15.8 °F 51% 30.66 in 10.0 mi ENE 8.1 mph - N/A   Clear
10:11 AM 32.0 °F 25.6 °F 15.8 °F 51% 30.67 in 10.0 mi NE 6.9 mph - N/A   Clear
10:31 AM 32.0 °F 24.8 °F 17.6 °F 55% 30.67 in 10.0 mi NE 8.1 mph - N/A   Clear
10:51 AM 33.8 °F 28.6 °F 17.6 °F 52% 30.67 in 10.0 mi ENE 5.8 mph - N/A   Clear
11:11 AM 33.8 °F 27.0 °F 17.6 °F 52% 30.66 in 10.0 mi East 8.1 mph - N/A   Clear
11:31 AM 33.8 °F 28.6 °F 17.6 °F 52% 30.65 in 10.0 mi ENE 5.8 mph - N/A   Clear
11:51 AM 33.8 °F 28.6 °F 15.8 °F 48% 30.64 in 10.0 mi ENE 5.8 mph - N/A   Clear
12:11 PM 33.8 °F 30.8 °F 17.6 °F 52% 30.63 in 10.0 mi East 3.5 mph - N/A   Clear
12:31 PM 35.6 °F 30.7 °F 17.6 °F 48% 30.62 in 10.0 mi ENE 5.8 mph - N/A   Clear
12:52 PM 35.6 °F 32.8 °F 15.8 °F 44% 30.61 in 10.0 mi East 3.5 mph - N/A   Clear
1:12 PM 35.6 °F 30.7 °F 15.8 °F 44% 30.61 in 10.0 mi NE 5.8 mph - N/A   Clear
1:32 PM 35.6 °F - 17.6 °F 48% 30.60 in 10.0 mi Calm Calm - N/A   Clear
1:52 PM 35.6 °F 30.7 °F 19.4 °F 52% 30.60 in 10.0 mi NNW 5.8 mph - N/A   Clear
2:12 PM 35.6 °F 31.7 °F 19.4 °F 52% 30.60 in 10.0 mi NNW 4.6 mph - N/A   Clear
2:32 PM 35.6 °F 29.9 °F 19.4 °F 52% 30.59 in 10.0 mi NNW 6.9 mph - N/A   Clear
2:52 PM 33.8 °F 27.7 °F 21.2 °F 60% 30.60 in 10.0 mi NNW 6.9 mph - N/A   Clear
3:32 PM 33.8 °F 29.6 °F 21.2 °F 60% 30.61 in 10.0 mi NW 4.6 mph - N/A   Scattered Clouds
3:52 PM 32.0 °F 27.5 °F 21.2 °F 64% 30.61 in 10.0 mi NNW 4.6 mph - N/A   Clear
4:12 PM 32.0 °F 28.7 °F 21.2 °F 64% 30.62 in 10.0 mi NNW 3.5 mph - N/A   Clear
4:32 PM 32.0 °F 28.7 °F 21.2 °F 64% 30.62 in 10.0 mi NNW 3.5 mph - N/A   Clear
4:52 PM 32.0 °F - 21.2 °F 64% 30.61 in 10.0 mi Calm Calm - N/A   Clear
5:12 PM 32.0 °F - 23.0 °F 69% 30.61 in 10.0 mi Calm Calm - N/A   Clear
6:32 PM 30.2 °F - 23.0 °F 75% 30.61 in 10.0 mi Calm Calm - N/A   Clear
6:52 PM 30.2 °F - 23.0 °F 75% 30.59 in 10.0 mi Calm Calm - N/A   Clear
7:12 PM 28.4 °F - 23.0 °F 80% 30.60 in 10.0 mi Calm Calm - N/A   Clear
7:32 PM 30.2 °F - 23.0 °F 75% 30.60 in 10.0 mi Calm Calm - N/A   Clear
7:52 PM 30.2 °F 24.3 °F 23.0 °F 75% 30.60 in 10.0 mi East 5.8 mph - N/A   Clear
8:12 PM 32.0 °F 28.7 °F 21.2 °F 64% 30.61 in 10.0 mi East 3.5 mph - N/A   Clear
8:32 PM 30.2 °F 26.7 °F 21.2 °F 69% 30.62 in 10.0 mi SE 3.5 mph - N/A   Clear
8:52 PM 30.2 °F 25.4 °F 19.4 °F 64% 30.63 in 10.0 mi ESE 4.6 mph - N/A   Clear
9:13 PM 32.0 °F 27.5 °F 21.2 °F 64% 30.62 in 10.0 mi ESE 4.6 mph - N/A   Clear
9:33 PM 32.0 °F 28.7 °F 21.2 °F 64% 30.61 in 10.0 mi ESE 3.5 mph - N/A   Clear
9:53 PM 32.0 °F 28.7 °F 21.2 °F 64% 30.62 in 10.0 mi ESE 3.5 mph - N/A   Clear
10:13 PM 32.0 °F 26.4 °F 21.2 °F 64% 30.61 in 10.0 mi ESE 5.8 mph - N/A   Clear
10:33 PM 32.0 °F 26.4 °F 21.2 °F 64% 30.60 in 10.0 mi ESE 5.8 mph - N/A   Clear
10:53 PM 32.0 °F 28.7 °F 23.0 °F 69% 30.59 in 10.0 mi East 3.5 mph - N/A   Clear
11:13 PM 32.0 °F 28.7 °F 23.0 °F 69% 30.59 in 10.0 mi East 3.5 mph - N/A   Clear
11:33 PM 32.0 °F 28.7 °F 23.0 °F 69% 30.57 in 10.0 mi East 3.5 mph - N/A   Clear
11:53 PM 30.2 °F 25.4 °F 23.0 °F 75% 30.56 in 10.0 mi East 4.6 mph - N/A   Clear